QPF
0.01 0.01 0.01 0.00 0.00 0.00 0.00 0.00 0.00 0.00 0.00 0.00 0.00 0.00 0.00 0.00 0.00 0.00 0.00 0.01 0.01 0.01 0.03 0.03 0.02 0.01 0.01 0.02 0.02 0.03 0.02 0.02 0.01 0.02 0.02 0.02 0.02 0.02
0.02 0.01 0.01 0.00 0.00 0.00 0.00 0.00 0.00 0.00 0.00 0.00 0.00 0.00 0.00 0.00 0.00 0.00 0.00 0.01 0.01 0.01 0.01 0.01 0.01 0.01 0.01 0.01 0.01 0.02 0.02 0.01 0.01 0.01 0.01 0.01 0.01 0.01
0.01 0.01 0.01 0.00 0.00 0.00 0.00 0.00 0.00 0.00 0.00 0.00 0.00 0.00 0.00 0.00 0.00 0.00 0.01 0.01 0.00 0.00 0.00 0.00 0.00 0.00 0.00 0.00 0.01 0.01 0.01 0.01 0.01 0.01 0.01 0.01 0.01 0.01
0.01 0.01 0.01 0.01 0.00 0.00 0.00 0.00 0.01 0.00 0.00 0.00 0.00 0.00 0.00 0.00 0.00 0.00 0.00 0.00 0.00 0.00 0.00 0.00 0.00 0.00 0.00 0.00 0.00 0.00 0.00 0.00 0.01 0.01 0.01 0.01 0.01 0.01
0.01 0.01 0.01 0.01 0.00 0.00 0.00 0.00 0.00 0.01 0.00 0.00 0.00 0.00 0.00 0.00 0.00 0.00 0.00 0.00 0.00 0.00 0.00 0.00 0.00 0.01 0.01 0.00 0.00 0.00 0.00 0.00 0.00 0.00 0.01 0.01 0.01 0.01
0.02 0.02 0.02 0.01 0.01 0.00 0.00 0.00 0.00 0.01 0.00 0.00 0.00 0.00 0.00 0.00 0.00 0.00 0.00 0.00 0.00 0.00 0.01 0.02 0.02 0.01 0.01 0.01 0.01 0.01 0.00 0.00 0.01 0.01 0.01 0.01 0.01 0.01
0.02 0.02 0.02 0.02 0.01 0.01 0.01 0.00 0.01 0.01 0.00 0.00 0.00 0.00 0.00 0.00 0.00 0.00 0.00 0.00 0.00 0.00 0.00 0.00 0.01 0.01 0.01 0.01 0.00 0.00 0.00 0.00 0.01 0.01 0.01 0.00 0.00 0.00
0.02 0.02 0.02 0.02 0.02 0.01 0.01 0.01 0.01 0.01 0.01 0.00 0.00 0.00 0.00 0.00 0.00 0.00 0.00 0.00 0.00 0.00 0.00 0.00 0.00 0.00 0.00 0.00 0.00 0.00 0.00 0.00 0.00 0.00 0.00 0.00 0.00 0.00
0.02 0.02 0.02 0.03 0.03 0.02 0.01 0.01 0.01 0.01 0.01 0.01 0.00 0.00 0.00 0.00 0.00 0.00 0.00 0.00 0.00 0.00 0.00 0.00 0.00 0.00 0.00 0.00 0.00 0.00 0.00 0.00 0.00 0.00 0.00 0.00 0.00 0.00
0.02 0.02 0.02 0.03 0.03 0.03 0.02 0.02 0.02 0.01 0.01 0.00 0.00 0.00 0.00 0.00 0.01 0.00 0.00 0.00 0.00 0.00 0.00 0.00 0.00 0.00 0.00 0.00 0.00 0.00 0.00 0.00 0.00 0.00 0.00 0.00 0.00 0.00
0.03 0.02 0.01 0.02 0.02 0.01 0.01 0.01 0.01 0.01 0.01 0.01 0.00 0.01 0.01 0.01 0.01 0.01 0.01 0.01 0.00 0.00 0.00 0.00 0.00 0.00 0.00 0.00 0.01 0.01 0.01 0.00 0.00 0.00 0.00 0.00 0.00 0.00
0.03 0.03 0.02 0.01 0.01 0.01 0.00 0.00 0.01 0.01 0.01 0.01 0.01 0.01 0.01 0.01 0.01 0.01 0.01 0.01 0.00 0.00 0.00 0.01 0.01 0.01 0.01 0.01 0.00 0.00 0.00 0.00 0.01 0.01 0.01 0.01 0.01 0.01
0.04 0.03 0.02 0.01 0.01 0.01 0.01 0.01 0.01 0.00 0.00 0.00 0.00 0.00 0.00 0.00 0.00 0.00 0.00 0.00 0.00 0.00 0.00 0.01 0.01 0.01 0.01 0.00 0.00 0.00 0.00 0.01 0.01 0.01 0.01 0.01 0.01 0.01
0.03 0.03 0.02 0.02 0.01 0.01 0.01 0.01 0.00 0.00 0.00 0.00 0.00 0.00 0.00 0.00 0.00 0.00 0.00 0.00 0.00 0.00 0.00 0.01 0.01 0.01 0.01 0.00 0.00 0.00 0.00 0.01 0.01 0.01 0.01 0.01 0.01 0.01
0.02 0.02 0.02 0.02 0.01 0.01 0.01 0.01 0.00 0.00 0.00 0.00 0.00 0.00 0.00 0.00 0.00 0.00 0.00 0.00 0.00 0.00 0.00 0.01 0.01 0.01 0.01 0.00 0.00 0.00 0.00 0.00 0.00 0.01 0.01 0.00 0.00 0.00
0.01 0.01 0.01 0.01 0.01 0.00 0.01 0.01 0.01 0.01 0.01 0.01 0.00 0.00 0.01 0.01 0.01 0.01 0.01 0.01 0.01 0.01 0.01 0.01 0.01 0.01 0.01 0.00 0.00 0.00 0.00 0.01 0.00 0.01 0.01 0.00 0.00 0.00
0.02 0.02 0.01 0.01 0.01 0.01 0.01 0.01 0.01 0.01 0.01 0.01 0.01 0.01 0.02 0.02 0.02 0.02 0.03 0.03 0.02 0.01 0.01 0.01 0.01 0.01 0.01 0.01 0.01 0.00 0.01 0.01 0.01 0.01 0.01 0.01 0.01 0.01
0.04 0.02 0.02 0.01 0.01 0.01 0.01 0.01 0.01 0.01 0.01 0.02 0.02 0.02 0.02 0.02 0.02 0.02 0.02 0.02 0.01 0.01 0.01 0.01 0.01 0.01 0.01 0.01 0.01 0.01 0.01 0.01 0.01 0.01 0.01 0.01 0.01 0.00
0.05 0.04 0.03 0.02 0.02 0.02 0.02 0.02 0.02 0.02 0.02 0.01 0.01 0.01 0.01 0.01 0.01 0.01 0.01 0.01 0.01 0.01 0.01 0.01 0.01 0.01 0.01 0.01 0.01 0.01 0.01 0.01 0.01 0.01 0.01 0.01 0.01 0.00
0.04 0.04 0.03 0.03 0.02 0.02 0.02 0.02 0.01 0.01 0.01 0.01 0.01 0.01 0.01 0.01 0.01 0.01 0.01 0.01 0.01 0.01 0.01 0.00 0.01 0.01 0.02 0.02 0.01 0.01 0.01 0.01 0.01 0.01 0.01 0.01 0.01 0.01
0.04 0.03 0.03 0.03 0.03 0.03 0.03 0.03 0.02 0.02 0.02 0.02 0.02 0.02 0.01 0.01 0.01 0.01 0.01 0.01 0.01 0.01 0.01 0.01 0.01 0.01 0.01 0.01 0.01 0.01 0.01 0.01 0.01 0.01 0.01 0.01 0.01 0.01
0.05 0.05 0.05 0.06 0.06 0.06 0.05 0.05 0.04 0.03 0.02 0.02 0.01 0.01 0.01 0.01 0.01 0.01 0.01 0.01 0.01 0.01 0.01 0.01 0.01 0.01 0.02 0.02 0.02 0.01 0.01 0.01 0.01 0.01 0.01 0.01 0.01 0.01
0.07 0.06 0.05 0.05 0.04 0.04 0.04 0.03 0.03 0.02 0.02 0.01 0.01 0.01 0.01 0.01 0.01 0.01 0.01 0.01 0.01 0.01 0.01 0.01 0.01 0.02 0.02 0.02 0.02 0.01 0.01 0.00 0.00 0.00 0.00 0.00 0.01 0.01
MSLP
1018.63 1018.81 1019.03 1019.26 1019.47 1019.65 1019.77 1019.84 1019.85 1019.84 1019.80 1019.75 1019.71 1019.67 1019.65 1019.62 1019.59 1019.57 1019.54 1019.53 1019.52 1019.54 1019.58 1019.63 1019.69 1019.74 1019.77 1019.78 1019.74 1019.67 1019.57 1019.44 1019.30 1019.16 1019.02 1018.89 1018.75 1018.62
1018.49 1018.64 1018.82 1019.00 1019.19 1019.34 1019.46 1019.55 1019.60 1019.62 1019.63 1019.62 1019.60 1019.58 1019.54 1019.49 1019.42 1019.34 1019.26 1019.18 1019.12 1019.08 1019.07 1019.08 1019.10 1019.13 1019.15 1019.13 1019.09 1019.02 1018.92 1018.80 1018.68 1018.55 1018.42 1018.30 1018.19 1018.07
1018.42 1018.53 1018.66 1018.81 1018.95 1019.08 1019.19 1019.29 1019.36 1019.42 1019.47 1019.51 1019.53 1019.53 1019.49 1019.42 1019.32 1019.19 1019.05 1018.90 1018.76 1018.65 1018.57 1018.52 1018.50 1018.48 1018.46 1018.43 1018.37 1018.30 1018.20 1018.09 1017.98 1017.87 1017.77 1017.67 1017.57 1017.47
1018.37 1018.46 1018.55 1018.66 1018.76 1018.86 1018.96 1019.06 1019.16 1019.25 1019.34 1019.42 1019.47 1019.50 1019.48 1019.41 1019.28 1019.12 1018.92 1018.71 1018.50 1018.32 1018.17 1018.05 1017.95 1017.88 1017.81 1017.74 1017.66 1017.57 1017.47 1017.37 1017.27 1017.17 1017.09 1017.01 1016.93 1016.84
1018.26 1018.34 1018.42 1018.50 1018.57 1018.65 1018.74 1018.84 1018.95 1019.06 1019.18 1019.30 1019.39 1019.45 1019.45 1019.39 1019.27 1019.09 1018.86 1018.61 1018.35 1018.10 1017.88 1017.69 1017.52 1017.38 1017.25 1017.13 1017.01 1016.89 1016.78 1016.67 1016.57 1016.49 1016.41 1016.34 1016.27 1016.19
1018.01 1018.10 1018.18 1018.25 1018.32 1018.39 1018.47 1018.56 1018.68 1018.81 1018.95 1019.10 1019.22 1019.31 1019.34 1019.31 1019.20 1019.03 1018.80 1018.54 1018.25 1017.97 1017.69 1017.43 1017.20 1016.99 1016.80 1016.61 1016.44 1016.28 1016.14 1016.01 1015.90 1015.82 1015.74 1015.68 1015.61 1015.53
1017.52 1017.64 1017.74 1017.83 1017.90 1017.98 1018.07 1018.17 1018.29 1018.43 1018.58 1018.74 1018.89 1019.01 1019.07 1019.08 1019.01 1018.87 1018.68 1018.43 1018.14 1017.85 1017.54 1017.25 1016.96 1016.69 1016.43 1016.18 1015.95 1015.74 1015.55 1015.40 1015.27 1015.17 1015.09 1015.02 1014.94 1014.85
1016.75 1016.91 1017.06 1017.18 1017.29 1017.39 1017.49 1017.60 1017.73 1017.87 1018.03 1018.20 1018.36 1018.50 1018.60 1018.65 1018.63 1018.55 1018.40 1018.20 1017.95 1017.67 1017.37 1017.05 1016.73 1016.41 1016.10 1015.79 1015.50 1015.24 1015.01 1014.81 1014.66 1014.53 1014.44 1014.36 1014.27 1014.17
1015.74 1015.95 1016.14 1016.32 1016.48 1016.62 1016.75 1016.88 1017.01 1017.16 1017.32 1017.48 1017.65 1017.80 1017.92 1018.00 1018.04 1018.01 1017.93 1017.79 1017.60 1017.36 1017.09 1016.78 1016.46 1016.11 1015.76 1015.41 1015.08 1014.77 1014.49 1014.26 1014.06 1013.92 1013.80 1013.69 1013.59 1013.48
1014.57 1014.83 1015.08 1015.31 1015.53 1015.72 1015.89 1016.04 1016.19 1016.33 1016.48 1016.63 1016.78 1016.93 1017.07 1017.18 1017.25 1017.28 1017.27 1017.20 1017.07 1016.90 1016.68 1016.41 1016.10 1015.76 1015.40 1015.02 1014.66 1014.31 1013.99 1013.72 1013.50 1013.32 1013.17 1013.05 1012.92 1012.79
1013.36 1013.66 1013.97 1014.26 1014.54 1014.78 1014.99 1015.17 1015.33 1015.47 1015.60 1015.73 1015.86 1015.99 1016.12 1016.24 1016.34 1016.41 1016.45 1016.45 1016.40 1016.29 1016.13 1015.92 1015.65 1015.34 1014.99 1014.62 1014.24 1013.88 1013.53 1013.23 1012.97 1012.76 1012.58 1012.43 1012.28 1012.12
1012.22 1012.56 1012.91 1013.26 1013.58 1013.87 1014.12 1014.32 1014.49 1014.62 1014.74 1014.84 1014.94 1015.05 1015.16 1015.27 1015.38 1015.48 1015.56 1015.61 1015.63 1015.59 1015.50 1015.36 1015.15 1014.88 1014.57 1014.22 1013.86 1013.49 1013.13 1012.81 1012.52 1012.27 1012.05 1011.86 1011.68 1011.49
1011.20 1011.56 1011.95 1012.33 1012.69 1013.01 1013.29 1013.52 1013.69 1013.82 1013.92 1014.00 1014.07 1014.15 1014.24 1014.33 1014.44 1014.56 1014.67 1014.76 1014.83 1014.87 1014.85 1014.78 1014.64 1014.44 1014.18 1013.87 1013.53 1013.17 1012.81 1012.47 1012.15 1011.86 1011.59 1011.36 1011.13 1010.90
1010.25 1010.63 1011.03 1011.43 1011.82 1012.16 1012.46 1012.70 1012.89 1013.02 1013.11 1013.18 1013.24 1013.30 1013.37 1013.45 1013.56 1013.69 1013.82 1013.96 1014.08 1014.18 1014.23 1014.23 1014.17 1014.04 1013.84 1013.59 1013.28 1012.94 1012.58 1012.21 1011.86 1011.52 1011.21 1010.91 1010.62 1010.34
1009.29 1009.67 1010.08 1010.48 1010.87 1011.22 1011.53 1011.79 1011.98 1012.13 1012.24 1012.32 1012.38 1012.45 1012.52 1012.62 1012.74 1012.89 1013.05 1013.23 1013.41 1013.56 1013.68 1013.75 1013.77 1013.71 1013.57 1013.37 1013.10 1012.78 1012.42 1012.03 1011.64 1011.25 1010.87 1010.50 1010.15 1009.80
1008.19 1008.57 1008.96 1009.36 1009.74 1010.09 1010.40 1010.67 1010.89 1011.07 1011.21 1011.33 1011.43 1011.54 1011.65 1011.79 1011.96 1012.15 1012.36 1012.58 1012.82 1013.03 1013.22 1013.36 1013.43 1013.44 1013.36 1013.20 1012.97 1012.66 1012.29 1011.88 1011.45 1011.00 1010.55 1010.10 1009.67 1009.25
1006.88 1007.25 1007.62 1007.99 1008.35 1008.69 1009.01 1009.29 1009.55 1009.77 1009.97 1010.16 1010.34 1010.53 1010.72 1010.94 1011.17 1011.44 1011.72 1012.01 1012.30 1012.58 1012.82 1013.02 1013.15 1013.21 1013.18 1013.05 1012.83 1012.53 1012.15 1011.72 1011.24 1010.73 1010.21 1009.69 1009.18 1008.68
1005.38 1005.73 1006.07 1006.41 1006.74 1007.07 1007.39 1007.69 1007.99 1008.28 1008.56 1008.84 1009.12 1009.42 1009.73 1010.05 1010.39 1010.75 1011.12 1011.48 1011.84 1012.18 1012.48 1012.72 1012.89 1012.98 1012.98 1012.87 1012.66 1012.35 1011.95 1011.49 1010.97 1010.41 1009.83 1009.24 1008.66 1008.10
1003.86 1004.17 1004.47 1004.77 1005.07 1005.38 1005.69 1006.02 1006.36 1006.71 1007.09 1007.47 1007.88 1008.30 1008.74 1009.19 1009.65 1010.11 1010.56 1011.01 1011.43 1011.82 1012.15 1012.43 1012.62 1012.72 1012.72 1012.62 1012.40 1012.08 1011.67 1011.17 1010.62 1010.02 1009.40 1008.76 1008.13 1007.52
1002.55 1002.81 1003.06 1003.32 1003.58 1003.86 1004.17 1004.51 1004.89 1005.30 1005.76 1006.25 1006.76 1007.31 1007.86 1008.43 1009.00 1009.55 1010.09 1010.60 1011.07 1011.49 1011.85 1012.13 1012.32 1012.41 1012.40 1012.28 1012.05 1011.71 1011.28 1010.78 1010.21 1009.59 1008.94 1008.28 1007.63 1006.98
1001.73 1001.94 1002.13 1002.33 1002.55 1002.80 1003.09 1003.43 1003.82 1004.28 1004.79 1005.35 1005.95 1006.58 1007.23 1007.88 1008.53 1009.15 1009.74 1010.29 1010.78 1011.20 1011.55 1011.82 1011.99 1012.06 1012.02 1011.87 1011.62 1011.27 1010.83 1010.32 1009.75 1009.14 1008.50 1007.85 1007.20 1006.55
1001.63 1001.77 1001.90 1002.04 1002.21 1002.41 1002.66 1002.98 1003.37 1003.83 1004.36 1004.95 1005.58 1006.25 1006.94 1007.63 1008.30 1008.95 1009.55 1010.09 1010.57 1010.97 1011.28 1011.51 1011.64 1011.66 1011.59 1011.41 1011.14 1010.78 1010.34 1009.85 1009.30 1008.72 1008.12 1007.50 1006.88 1006.26
1002.33 1002.40 1002.47 1002.55 1002.65 1002.80 1003.01 1003.28 1003.63 1004.06 1004.56 1005.12 1005.73 1006.38 1007.04 1007.70 1008.35 1008.96 1009.51 1010.01 1010.44 1010.78 1011.04 1011.20 1011.27 1011.25 1011.14 1010.93 1010.65 1010.29 1009.87 1009.41 1008.90 1008.38 1007.83 1007.28 1006.72 1006.15
Thickness
5710 5709 5708 5708 5707 5706 5705 5704 5699 5693 5693 5697 5699 5701 5700 5699 5698 5697 5695 5694 5693 5693 5692 5691 5691 5690 5689 5688 5687 5686 5685 5684 5683 5682 5681 5680 5679 5678
5708 5707 5707 5706 5706 5705 5704 5702 5701 5698 5694 5696 5697 5698 5698 5698 5697 5695 5694 5693 5692 5692 5691 5690 5689 5689 5688 5687 5686 5685 5684 5682 5681 5680 5679 5678 5677 5676
5706 5706 5705 5704 5703 5702 5702 5700 5699 5697 5694 5694 5694 5695 5696 5695 5694 5693 5693 5692 5691 5691 5690 5689 5688 5688 5687 5686 5685 5683 5682 5681 5680 5678 5677 5675 5674 5673
5704 5704 5703 5702 5701 5700 5699 5698 5697 5696 5694 5692 5692 5693 5693 5692 5692 5691 5691 5691 5690 5690 5689 5688 5687 5686 5685 5684 5683 5682 5681 5679 5678 5676 5675 5673 5672 5670
5703 5702 5701 5700 5699 5698 5697 5696 5695 5694 5692 5691 5689 5689 5689 5689 5689 5689 5688 5688 5688 5687 5687 5686 5685 5684 5683 5682 5681 5680 5679 5677 5675 5674 5672 5671 5669 5668
5701 5700 5699 5698 5698 5696 5695 5694 5693 5691 5689 5688 5686 5685 5685 5684 5684 5684 5684 5684 5684 5684 5684 5683 5682 5681 5680 5680 5679 5677 5676 5675 5673 5671 5669 5668 5667 5665
5699 5698 5698 5697 5696 5695 5694 5692 5691 5688 5686 5684 5683 5681 5681 5680 5680 5679 5679 5679 5679 5679 5679 5679 5678 5678 5677 5677 5675 5674 5673 5671 5669 5668 5666 5664 5663 5661
5697 5696 5696 5695 5695 5694 5693 5692 5690 5687 5684 5682 5680 5678 5678 5677 5676 5675 5674 5673 5673 5675 5673 5674 5673 5673 5673 5672 5671 5670 5668 5667 5665 5663 5661 5659 5658 5656
5695 5694 5694 5695 5693 5692 5691 5689 5687 5686 5684 5682 5680 5678 5677 5676 5674 5672 5670 5669 5669 5670 5667 5669 5669 5668 5668 5667 5666 5664 5663 5661 5659 5657 5655 5653 5651 5650
5694 5693 5692 5691 5691 5689 5687 5686 5684 5683 5682 5680 5679 5678 5677 5675 5672 5670 5668 5665 5664 5663 5661 5661 5663 5663 5663 5662 5660 5658 5656 5654 5652 5650 5648 5646 5645 5643
5692 5691 5690 5688 5688 5686 5683 5681 5680 5679 5678 5677 5676 5674 5673 5670 5667 5664 5661 5659 5659 5658 5655 5654 5656 5655 5656 5655 5654 5651 5648 5646 5644 5642 5640 5639 5637 5635
5689 5688 5687 5685 5684 5682 5680 5677 5675 5675 5674 5673 5671 5669 5667 5665 5662 5659 5657 5654 5651 5650 5650 5646 5647 5644 5646 5648 5645 5642 5639 5637 5635 5634 5632 5630 5628 5626
5687 5685 5684 5682 5680 5677 5675 5674 5673 5671 5669 5666 5664 5663 5661 5659 5656 5653 5651 5648 5645 5643 5642 5638 5637 5633 5631 5634 5635 5633 5629 5627 5626 5625 5623 5621 5619 5616
5684 5683 5681 5679 5676 5673 5671 5670 5668 5665 5662 5660 5658 5656 5654 5652 5650 5647 5644 5641 5639 5636 5633 5629 5626 5624 5621 5621 5622 5623 5621 5618 5615 5614 5613 5611 5610 5607
5682 5680 5677 5675 5672 5669 5667 5664 5661 5658 5656 5653 5651 5650 5648 5645 5642 5639 5637 5634 5631 5628 5625 5620 5617 5615 5611 5610 5610 5611 5609 5609 5606 5603 5602 5600 5599 5597
5675 5673 5671 5668 5666 5663 5660 5657 5654 5652 5649 5646 5644 5642 5639 5636 5633 5630 5627 5625 5622 5621 5617 5613 5609 5605 5603 5602 5600 5600 5598 5596 5595 5592 5590 5589 5587 5586
5669 5665 5663 5661 5659 5656 5653 5649 5647 5643 5640 5638 5635 5633 5630 5627 5624 5621 5617 5614 5611 5610 5608 5605 5600 5597 5594 5592 5592 5591 5589 5586 5584 5581 5579 5579 5579 5576
5662 5659 5656 5653 5651 5648 5645 5641 5638 5635 5632 5629 5627 5624 5621 5618 5614 5611 5607 5604 5601 5599 5596 5594 5590 5588 5586 5585 5582 5580 5578 5577 5575 5572 5568 5568 5570 5569
5653 5651 5648 5645 5642 5639 5636 5632 5629 5626 5623 5619 5617 5614 5610 5607 5603 5600 5596 5593 5590 5588 5585 5581 5578 5575 5574 5576 5577 5569 5566 5566 5564 5562 5559 5557 5559 5560
5643 5641 5638 5635 5632 5629 5626 5622 5619 5616 5612 5609 5606 5602 5598 5595 5592 5588 5585 5582 5579 5577 5574 5571 5567 5563 5561 5561 5563 5562 5556 5553 5552 5551 5550 5549 5548 5548
5632 5630 5628 5625 5621 5617 5614 5611 5607 5604 5600 5597 5593 5590 5586 5583 5580 5576 5573 5569 5566 5564 5562 5560 5557 5552 5550 5548 5549 5551 5548 5541 5538 5536 5536 5536 5538 5539
5622 5619 5616 5613 5609 5606 5602 5599 5595 5592 5588 5584 5581 5577 5574 5570 5568 5565 5562 5559 5556 5553 5551 5549 5545 5541 5538 5537 5538 5539 5538 5534 5530 5526 5524 5522 5522 5525
5609 5606 5603 5599 5596 5593 5589 5586 5582 5578 5575 5571 5568 5565 5562 5558 5555 5552 5549 5547 5545 5543 5540 5538 5534 5531 5528 5527 5526 5526 5526 5525 5523 5521 5519 5515 5512 5512